Weather History for Big Bear City, CA

Change the Weather History Date:

Saturday, July 7, 2012

  Actual Average (KBUO) Record (KBUO)
Temperature  
Mean Temperature 58 °F -  
Max Temperature 77 °F 88 °F 98 °F (1996)
Min Temperature 39 °F 58 °F 53 °F (2000)
Degree Days  
Heating Degree Days 7    
Growing Degree Days 8 (Base 50)    
Moisture  
Dew Point 28 °F    
Average Humidity 34    
Maximum Humidity 53    
Minimum Humidity 12    
Precipitation  
Precipitation 0.00 in - - ()
Sea Level Pressure  
Sea Level Pressure 30.29 in    
Wind  
Wind Speed 3 mph (West)    
Max Wind Speed 15 mph    
Max Gust Speed 24 mph    
Visibility 10 miles    
Events      
Averages and records for this station are not official NWS values.
T = Trace of Precipitation, MM = Missing Value Source: NWS Daily Summary

Daily Weather History Graph

Daily Weather History Graph

Search for Another Location

Airport:

Trip Planner

Search our weather history database for the weather conditions in past years. The results will help you decide how hot, cold, wet, or windy it might be!

Date:

Astronomy

Jul. 07, 2012 Rise Set
Actual Time 5:42 AM PDT 8:02 PM PDT
Civil Twilight 5:13 AM PDT 8:31 PM PDT
Nautical Twilight 4:37 AM PDT 9:06 PM PDT
Astronomical Twilight 3:58 AM PDT 9:45 PM PDT
Moon 10:39 PM PDT (7/7) 9:58 AM PDT (7/7)
Length of Visible Light 15h 18m
Length of Day
14h 20m
Waning Gibbous, 81% of the Moon is Illuminated
Jul 7
Waning Gibbous
Jul 10
Last Quarter
Jul 18
New
Jul 26
First Quarter
Aug 1
Full

Hourly Weather History & Observations

Time (PDT) Temp. Dew Point Humidity Pressure Visibility Wind Dir Wind Speed Gust Speed Precip Events Conditions
12:15 AM 46.4 °F 30.2 °F 53% 30.29 in 10.0 mi Calm Calm - N/A   Clear
12:35 AM 46.4 °F 28.4 °F 50% 30.29 in 10.0 mi Calm Calm - N/A   Clear
12:55 AM 46.4 °F 28.4 °F 50% 30.29 in 10.0 mi Calm Calm - N/A   Clear
1:15 AM 44.6 °F 26.6 °F 49% 30.29 in 10.0 mi Calm Calm - N/A   Clear
1:35 AM 44.6 °F 26.6 °F 49% 30.28 in 10.0 mi Calm Calm - N/A   Clear
1:55 AM 44.6 °F 26.6 °F 49% 30.28 in 10.0 mi Calm Calm - N/A   Clear
2:15 AM 44.6 °F 26.6 °F 49% 30.28 in 10.0 mi Calm Calm - N/A   Clear
2:35 AM 42.8 °F 26.6 °F 53% 30.28 in 10.0 mi Calm Calm - N/A   Clear
2:55 AM 42.8 °F 24.8 °F 49% 30.28 in 10.0 mi Calm Calm - N/A   Clear
3:15 AM 42.8 °F 26.6 °F 53% 30.28 in 10.0 mi Calm Calm - N/A   Clear
3:35 AM 41.0 °F 23.0 °F 49% 30.28 in 10.0 mi Calm Calm - N/A   Clear
3:55 AM 41.0 °F 23.0 °F 49% 30.28 in 10.0 mi Calm Calm - N/A   Clear
4:15 AM 41.0 °F 23.0 °F 49% 30.28 in 10.0 mi Calm Calm - N/A   Clear
4:35 AM 41.0 °F 23.0 °F 49% 30.28 in 10.0 mi Calm Calm - N/A   Clear
4:55 AM 41.0 °F 21.2 °F 45% 30.28 in 10.0 mi Calm Calm - N/A   Clear
5:15 AM 39.2 °F 19.4 °F 45% 30.28 in 10.0 mi Calm Calm - N/A   Clear
5:35 AM 39.2 °F 19.4 °F 45% 30.29 in 10.0 mi Calm Calm - N/A   Clear
5:55 AM 39.2 °F 19.4 °F 45% 30.29 in 10.0 mi Calm Calm - N/A   Clear
6:15 AM 41.0 °F 21.2 °F 45% 30.30 in 10.0 mi Calm Calm - N/A   Clear
6:35 AM 42.8 °F 23.0 °F 46% 30.30 in 10.0 mi Calm Calm - N/A   Clear
6:55 AM 44.6 °F 26.6 °F 49% 30.30 in 10.0 mi Calm Calm - N/A   Clear
7:15 AM 50.0 °F 32.0 °F 50% 30.31 in 10.0 mi West 3.5 mph - N/A   Clear
7:35 AM 53.6 °F 35.6 °F 51% 30.31 in 10.0 mi West 3.5 mph - N/A   Clear
7:55 AM 57.2 °F 35.6 °F 44% 30.31 in 10.0 mi West 3.5 mph - N/A   Clear
8:15 AM 60.8 °F 33.8 °F 36% 30.31 in 10.0 mi West 3.5 mph - N/A   Clear
8:35 AM 64.4 °F 30.2 °F 28% 30.31 in 10.0 mi West 6.9 mph - N/A   Clear
8:55 AM 64.4 °F 28.4 °F 26% 30.31 in 10.0 mi WSW 5.8 mph - N/A   Clear
9:15 AM 68.0 °F 26.6 °F 21% 30.31 in 10.0 mi West 5.8 mph - N/A   Clear
9:35 AM 68.0 °F 26.6 °F 21% 30.31 in 10.0 mi WSW 4.6 mph - N/A   Clear
9:55 AM 69.8 °F 26.6 °F 20% 30.31 in 10.0 mi West 5.8 mph - N/A   Clear
10:15 AM 69.8 °F 28.4 °F 21% 30.31 in 10.0 mi WSW 4.6 mph - N/A   Clear
10:35 AM 71.6 °F 26.6 °F 19% 30.30 in 10.0 mi SW 3.5 mph - N/A   Clear
10:55 AM 71.6 °F 21.2 °F 15% 30.31 in 10.0 mi East 5.8 mph - N/A   Clear
11:15 AM 73.4 °F 19.4 °F 13% 30.31 in 10.0 mi North 6.9 mph - N/A   Clear
11:35 AM 73.4 °F 21.2 °F 14% 30.31 in 10.0 mi NNE 8.1 mph - N/A   Clear
11:55 AM 73.4 °F 21.2 °F 14% 30.31 in 10.0 mi ENE 8.1 mph - N/A   Clear
12:15 PM 73.4 °F 21.2 °F 14% 30.31 in 10.0 mi ENE 11.5 mph 17.3 mph N/A   Clear
12:35 PM 73.4 °F 19.4 °F 13% 30.30 in 10.0 mi ENE 4.6 mph - N/A   Clear
12:55 PM 75.2 °F 19.4 °F 12% 30.30 in 10.0 mi ENE 6.9 mph - N/A   Clear
1:15 PM 75.2 °F 19.4 °F 12% 30.30 in 10.0 mi ENE 3.5 mph - N/A   Clear
1:35 PM 77.0 °F 19.4 °F 12% 30.30 in 10.0 mi North 5.8 mph - N/A   Clear
1:55 PM 75.2 °F 30.2 °F 19% 30.29 in 10.0 mi West 10.4 mph - N/A   Clear
2:15 PM 77.0 °F 24.8 °F 14% 30.29 in 10.0 mi WSW 3.5 mph 24.2 mph N/A   Clear
2:35 PM 75.2 °F 32.0 °F 21% 30.29 in 10.0 mi West 10.4 mph - N/A   Clear
2:55 PM 75.2 °F 32.0 °F 21% 30.29 in 10.0 mi West 11.5 mph 16.1 mph N/A   Clear
3:15 PM 75.2 °F 33.8 °F 22% 30.29 in 10.0 mi West 11.5 mph - N/A   Clear
3:35 PM 75.2 °F 32.0 °F 21% 30.28 in 10.0 mi West 11.5 mph - N/A   Clear
3:55 PM 73.4 °F 33.8 °F 23% 30.28 in 10.0 mi West 13.8 mph 18.4 mph N/A   Clear
4:15 PM 73.4 °F 33.8 °F 23% 30.28 in 10.0 mi West 15.0 mph - N/A   Clear
4:35 PM 73.4 °F 35.6 °F 25% 30.28 in 10.0 mi West 11.5 mph 16.1 mph N/A   Clear
4:55 PM 73.4 °F 33.8 °F 23% 30.28 in 10.0 mi WSW 10.4 mph - N/A   Clear
5:15 PM 73.4 °F 35.6 °F 25% 30.27 in 10.0 mi WSW 8.1 mph 16.1 mph N/A   Clear
5:55 PM 69.8 °F 33.8 °F 27% 30.27 in 10.0 mi SW 5.8 mph - N/A   Clear
6:35 PM 68.0 °F 33.8 °F 28% 30.28 in 10.0 mi WSW 6.9 mph - N/A   Clear
6:55 PM 68.0 °F 33.8 °F 28% 30.28 in 10.0 mi SW 8.1 mph - N/A   Clear
7:15 PM 66.2 °F 32.0 °F 28% 30.28 in 10.0 mi SW 9.2 mph - N/A   Clear
7:35 PM 64.4 °F 32.0 °F 30% 30.28 in 10.0 mi WSW 6.9 mph - N/A   Clear
7:55 PM 62.6 °F 32.0 °F 32% 30.28 in 10.0 mi West 8.1 mph - N/A   Clear
8:15 PM 62.6 °F 32.0 °F 32% 30.29 in 10.0 mi West 6.9 mph - N/A   Clear
8:35 PM 60.8 °F 32.0 °F 34% 30.29 in 10.0 mi West 8.1 mph - N/A   Clear
8:55 PM 60.8 °F 32.0 °F 34% 30.30 in 10.0 mi WSW 3.5 mph - N/A   Clear
9:35 PM 55.4 °F 32.0 °F 41% 30.31 in 10.0 mi Calm Calm - N/A   Clear
9:55 PM 53.6 °F 32.0 °F 44% 30.31 in 10.0 mi SSW 3.5 mph - N/A   Clear
10:15 PM 53.6 °F 32.0 °F 44% 30.31 in 10.0 mi SSW 3.5 mph - N/A   Clear
10:35 PM 51.8 °F 32.0 °F 47% 30.31 in 10.0 mi Calm Calm - N/A   Clear
10:55 PM 51.8 °F 30.2 °F 44% 30.31 in 10.0 mi Calm Calm - N/A   Clear
11:15 PM 50.0 °F 28.4 °F 43% 30.31 in 10.0 mi Calm Calm - N/A   Clear
11:35 PM 50.0 °F 26.6 °F 40% 30.31 in 10.0 mi Calm Calm - N/A   Clear
11:55 PM 48.2 °F 23.0 °F 37% 30.31 in 10.0 mi Calm Calm - N/A   Clear